TimeEST,TemperatureF,Dew PointF,Humidity,Sea Level PressureIn,VisibilityMPH,Wind Direction,Wind SpeedMPH,Gust SpeedMPH,PrecipitationIn,Events,Conditions,WindDirDegrees,DateUTC
12:53 AM,28.0,21.9,78,30.39,10.0,SSE,3.5,-,N/A,,Clear,160,2013-03-09 05:53:00
1:53 AM,26.1,19.9,78,30.38,10.0,ESE,3.5,-,N/A,,Clear,120,2013-03-09 06:53:00
2:53 AM,27.0,19.9,75,30.35,10.0,SE,4.6,-,N/A,,Clear,130,2013-03-09 07:53:00
3:53 AM,28.9,19.0,67,30.34,10.0,SE,5.8,-,N/A,,Clear,140,2013-03-09 08:53:00
4:53 AM,28.9,19.9,69,30.32,10.0,ESE,4.6,-,N/A,,Clear,120,2013-03-09 09:53:00
5:53 AM,30.0,21.0,69,30.30,10.0,ESE,8.1,-,N/A,,Clear,110,2013-03-09 10:53:00
6:53 AM,30.9,21.9,69,30.30,10.0,ESE,5.8,-,N/A,,Clear,110,2013-03-09 11:53:00
7:53 AM,33.1,24.1,70,30.30,10.0,SE,9.2,-,N/A,,Clear,130,2013-03-09 12:53:00
8:53 AM,35.1,26.1,70,30.31,10.0,SSE,5.8,-,N/A,,Clear,150,2013-03-09 13:53:00
9:53 AM,37.0,26.1,65,30.30,10.0,SSE,5.8,-,N/A,,Partly Cloudy,150,2013-03-09 14:53:00
10:53 AM,37.9,26.1,62,30.28,10.0,SE,12.7,-,N/A,,Mostly Cloudy,140,2013-03-09 15:53:00
11:53 AM,39.9,27.0,60,30.25,10.0,SE,12.7,-,N/A,,Mostly Cloudy,140,2013-03-09 16:53:00
12:53 PM,39.9,27.0,60,30.19,10.0,SE,12.7,-,N/A,,Overcast,130,2013-03-09 17:53:00
1:53 PM,41.0,28.0,60,30.14,10.0,ESE,13.8,-,0.00,,Mostly Cloudy,110,2013-03-09 18:53:00
2:53 PM,42.1,28.0,58,30.11,10.0,SE,12.7,-,N/A,,Overcast,140,2013-03-09 19:53:00
3:53 PM,43.0,28.0,56,30.09,10.0,ESE,10.4,-,N/A,,Overcast,120,2013-03-09 20:53:00
4:53 PM,44.1,27.0,51,30.07,10.0,SE,13.8,-,N/A,,Mostly Cloudy,130,2013-03-09 21:53:00
5:53 PM,43.0,28.0,56,30.05,10.0,SE,9.2,-,N/A,,Overcast,130,2013-03-09 22:53:00
6:53 PM,41.0,28.0,60,30.04,10.0,SE,12.7,-,N/A,,Scattered Clouds,140,2013-03-09 23:53:00
7:53 PM,42.1,28.0,58,30.01,10.0,SE,13.8,-,N/A,,Overcast,140,2013-03-10 00:53:00
8:53 PM,42.1,30.0,62,30.00,10.0,SE,13.8,-,0.00,,Overcast,140,2013-03-10 01:53:00
9:53 PM,42.1,30.0,62,29.99,10.0,SSE,13.8,-,N/A,,Scattered Clouds,150,2013-03-10 02:53:00
10:53 PM,42.1,30.9,65,29.97,10.0,SE,13.8,-,N/A,,Clear,140,2013-03-10 03:53:00
11:53 PM,43.0,30.9,62,29.95,10.0,SSE,12.7,-,N/A,,Mostly Cloudy,150,2013-03-10 04:53:00